[Iaude] MPEC D22: 2024 DB [a=1.02,e=0.35,i=23.1,H=21.9]
    mpec at cfa.harvard.edu 
    mpec at cfa.harvard.edu
       
    Fri Feb 16 19:26:58 EST 2024
    
    
  
M.P.E.C. 2024-D22                             Issued 2024 February 17, 00:25 UT
     The Minor Planet Electronic Circulars contain information on unusual
         minor planets, routine data on comets and natural satellites,
         and occasional editorial announcements.  They are published
    on behalf of Division F of the International Astronomical Union by the
          Minor Planet Center, Smithsonian Astrophysical Observatory,
                          Cambridge, MA 02138, U.S.A.
			  
             Prepared using the Tamkin Foundation Computer Network
                              MPC at CFA.HARVARD.EDU
            URL https://www.minorplanetcenter.net/    ISSN 1523-6714
                                    2024 DB                                     
Observations:
     K24D00B  C2024 01 21.50108211 56 41.756+12 40 35.87         21.98GVED022F52
     K24D00B  C2024 01 21.51220611 56 43.250+12 41 07.67         22.13GVED022F52
     K24D00B  C2024 02 03.51529312 32 31.320+26 28 31.43         21.48GVED022F52
     K24D00B  C2024 02 03.52707412 32 33.496+26 29 29.08         21.16GVED022F52
     K24D00B  C2024 02 03.53885212 32 35.686+26 30 27.48         21.30GVED022F52
     K24D00B  C2024 02 09.62344712 55 20.673+35 39 26.87         20.53GVED022F52
     K24D00B  C2024 02 09.63386812 55 23.180+35 40 27.74         20.54GVED022F52
     K24D00B  C2024 02 09.64430412 55 25.697+35 41 28.67         21.90GVED022F52
     K24D00B*1C2024 02 16.42202813 30 11.700+47 19 52.86         20.52GVED022G96
     K24D00B 1C2024 02 16.42723513 30 13.594+47 20 26.02         21.25GVED022G96
     K24D00B 1C2024 02 16.43245113 30 15.444+47 20 59.46         20.57GVED022G96
     K24D00B  C2024 02 16.45906013 30 24.666+47 23 47.51         20.3 GVED022H01
     K24D00B  C2024 02 16.46372313 30 26.340+47 24 17.10         20.2 GVED022H01
     K24D00B  C2024 02 16.47316813 30 29.692+47 25 16.80         20.3 GVED022H01
     K24D00B  C2024 02 16.47932013 30 31.817+47 25 55.45         20.8 GVED022H01
     K24D00B KC2024 02 16.50920413 30 42.703+47 29 05.39         20.59GVED022I52
     K24D00B KC2024 02 16.51220113 30 43.769+47 29 24.47         20.63GVED022I52
     K24D00B KC2024 02 16.51520013 30 44.834+47 29 43.19         20.91GVED022I52
     K24D00B KC2024 02 16.51819913 30 45.900+47 30 02.12         20.74GVED022I52
     K24D00B KB2024 02 16.94331 13 33 30.32 +48 14 38.0          19.8 RZED022106
     K24D00B KB2024 02 16.94826 13 33 32.18 +48 15 09.4          19.8 RZED022106
     K24D00B KB2024 02 16.95363 13 33 34.19 +48 15 44.3          19.7 RZED022106
     K24D00B KB2024 02 16.95901 13 33 36.16 +48 16 18.7          19.9 RZED022106
Observer details:
106 Crni Vrh.  Observer H. Mikuz.  0.60-m f/3.3 reflector + CMO.
F52 Pan-STARRS 2, Haleakala.  Observers J. Herman, T. Lowe, P. Minguez, A.
    Schultz, I. Smith.  Measurers K. Chambers, T. de Boer, J. Fairlamb, H.
    Gao, M. Huber, C.-C. Lin, E. Magnier, Y. Ramanjooloo, R. Wainscoat, R.
    Weryk.  1.8-m Ritchey-Chretien + CCD.
G96 Mt. Lemmon Survey.  Observers V. F. Carvajal, J. K. Hogan.  Measurers T.
    Beuden, V. F. Carvajal, D. Fay, J. B. Fazekas, D. C. Fuls, A. R. Gibbs, A.
    D. Grauer, H. Groeller, J. K. Hogan, R. A. Kowalski, S. M. Larson, G. J.
    Leonard, D. Rankin, R. L. Seaman, F. C. Shelly, K. W. Wierzchos.  1.5-m
    reflector + 10K CCD.
H01 Magdalena Ridge Observatory, Socorro.  Observers W. H. Ryan, E. V. Ryan.
    Measurer W. H. Ryan.  2.4-m f/8.9 Ritchey-Chretien + CCD.
I52 Steward Observatory, Mt. Lemmon Station.  Observer J. B. Fazekas.
    Measurers E. C. Beshore, D. Fay, J. B. Fazekas, D. C. Fuls, A. R. Gibbs,
    A. D. Grauer, H. Groeller, J. K. Hogan, R. A. Kowalski, S. M. Larson, G.
    J. Leonard, D. Rankin, R. L. Seaman, F. C. Shelly, K. W. Wierzchos.  1.0-m
    prime focus + CCD.
Orbital elements:
2024 DB                                                  Earth MOID = 0.2415 AU
Epoch 2024 Mar. 31.0 TT = JDT 2460400.5                 Veres                   
M 310.10126              (2000.0)            P               Q                  
n   0.95098755     Peri.  153.94083     +0.21318640     +0.92497068             
a   1.0241247      Node   126.71627     -0.95090507     +0.27038042             
e   0.3482174      Incl.   23.10873     -0.22434597     -0.26706492             
P   1.04           H   21.91          G   0.15           U   6                  
Residuals in seconds of arc
240121 F52  0.0   0.1-    240216 G96  0.3-  0.0     240216 I52  0.2+  0.2+
240121 F52  0.0   0.1+    240216 G96  0.2+  0.0     240216 I52  0.2+  0.0
240203 F52  0.2+  0.4+    240216 G96  0.2+  0.2+    240216 I52  0.1+  0.1+
240203 F52  0.1-  0.2-    240216 H01  0.1-  0.0     240216 106  0.2+  0.2+
240203 F52  0.2-  0.1+    240216 H01  0.1+  0.1+    240216 106  0.1+  0.3-
240209 F52  0.0   0.1-    240216 H01  0.0   0.0     240216 106  0.1-  0.1+
240209 F52  0.0   0.1-    240216 H01  0.6-  0.2-    240216 106  0.7-  0.1-
240209 F52  0.1+  0.1-    240216 I52  0.2+  0.0
Ephemeris:
2024 DB                  a,e,i = 1.02, 0.35, 23                  q = 0.6675
Date    TT    R. A. (2000) Decl.     Delta      r    Elong.  Phase     V
2024 01 18    11 48 40.1 +10 09 07   0.4286  1.2707   123.3    40.3    22.2
...
2024 02 02    12 27 37.3 +24 27 49   0.3120  1.2130   131.0    37.8    21.3
...
2024 02 10    12 56 58.1 +36 16 14   0.2706  1.1774   129.5    40.3    21.0
...
2024 02 16    13 27 35.7 +46 35 05   0.2525  1.1487   124.1    45.4    21.0
2024 02 17    13 33 49.6 +48 20 40   0.2507  1.1437   122.9    46.5    21.0
2024 02 18    13 40 28.5 +50 05 53   0.2492  1.1387   121.6    47.7    21.0
...
2024 02 24    14 31 43.8 +60 02 10   0.2468  1.1076   112.5    55.6    21.1
...
2024 03 03    16 24 35.4 +69 19 18   0.2588  1.0636    99.1    67.0    21.5
...
2024 03 18    20 27 42.6 +67 59 15   0.3075  0.9746    77.2    84.8    22.3
M. P. C. Staff               (C) Copyright 2024 MPC           M.P.E.C. 2024-D22
    
    
More information about the Iaude
mailing list